This is the latest recevied weather packets stored in our database for station/object N0KTA-2. If no packets are shown the sender has not sent any weather packets the latest 10 day(s).
| Time | Temp. | Humidity | Pressure | Rain* | Wind** | Luminosity | Snow |
|---|---|---|---|---|---|---|---|
| 1777669166 | 20.56° C | 31% | 1013.3 hPa | 0 mm | - | - | - |
| 1777668565 | 20.56° C | 31% | 1013.5 hPa | 0 mm | - | - | - |
| 1777667965 | 20.56° C | 29% | 1013.8 hPa | 0 mm | - | - | - |
| 1777667366 | 20° C | 28% | 1014 hPa | 0 mm | - | - | - |
| 1777666766 | 20° C | 30% | 1014.3 hPa | 0 mm | - | - | - |
| 1777666165 | 20° C | 30% | 1014.4 hPa | 0 mm | - | - | - |
| 1777665564 | 20° C | 32% | 1014.7 hPa | 0 mm | - | - | - |
| 1777664964 | 20° C | 33% | 1015 hPa | 0 mm | - | - | - |
| 1777664365 | 19.44° C | 34% | 1015.2 hPa | 0 mm | - | - | - |
| 1777663765 | 19.44° C | 34% | 1015.3 hPa | 0 mm | - | - | - |
| 1777663166 | 19.44° C | 34% | 1015.5 hPa | 0 mm | - | - | - |
| 1777662564 | 19.44° C | 33% | 1015.5 hPa | 0 mm | - | - | - |
| 1777661965 | 19.44° C | 37% | 1015.4 hPa | 0 mm | - | - | - |
| 1777661364 | 18.89° C | 35% | 1015.6 hPa | 0 mm | - | - | - |
| 1777660765 | 18.89° C | 34% | 1015.7 hPa | 0 mm | - | - | - |
| 1777660166 | 18.89° C | 34% | 1015.8 hPa | 0 mm | - | - | - |
| 1777659565 | 18.89° C | 33% | 1015.9 hPa | 0 mm | - | - | - |
| 1777658966 | 18.89° C | 36% | 1015.9 hPa | 0 mm | - | - | - |
| 1777658364 | 18.89° C | 33% | 1016 hPa | 0 mm | - | - | - |
| 1777657765 | 18.89° C | 33% | 1016.3 hPa | 0 mm | - | - | - |
| 1777657165 | 18.33° C | 36% | 1016.4 hPa | 0 mm | - | - | - |
| 1777656566 | 18.33° C | 37% | 1016.4 hPa | 0 mm | - | - | - |
| 1777655965 | 18.33° C | 38% | 1016.4 hPa | 0 mm | - | - | - |
| 1777655364 | 18.89° C | 37% | 1016.5 hPa | 0 mm | - | - | - |
| 1777654765 | 18.33° C | 36% | 1016.5 hPa | 0 mm | - | - | - |
* Rain latest hour (hover to see other rain measurements)
** Current wind speed in m/s (hover to see current wind gust speed)